Terug naar catalogus

DELTA 1 DEB

ActiefSSO
NORAD 7148·DEBRIS·🇺🇸 United States

Gelanceerd Nov 6, 1973 vanaf Vandenberg Space Force Base

Loading…

Volgende Passages (komende 24 uur)

TLE

VersSource: Space-Track

Epoch: Sep 14, 2026, 12:12 UTC

1 07148U 73086DN  26257.50876690  .00000221  00000-0  22977-2 0  9991
2 07148 102.0458 280.8328 0127199 131.0699  33.2949 12.26115424364541

Volg DELTA 1 DEB in realtime met AllMySat

Download on the App Store